1499457600.1,55342,17.06,74120.8,4.19,-15.21,-15.11,0,*77
1499457601.36,55343,17.06,74126.5,4.21,-14.93,-14.75,0,*76
1499457602.61,55344,17.06,74122.5,4.21,-14.89,-14.83,0,*73
1499457603.84,55345,17.06,74112.8,4.19,-14.93,-14.89,0,*78
1499457605.08,55346,17.06,74118.0,4.19,-14.97,-14.97,0,*70
1499457606.3,55347,17.06,74114.3,4.19,-15.11,-14.97,0,*7E
1499457607.55,55348,17.06,74110.0,4.21,-15.15,-15.01,0,*70
1499457608.81,55349,17.06,74098.5,4.21,-15.21,-14.93,0,*7C
1499457610.01,55350,17.06,74096.5,4.19,-15.25,-15.07,0,*77
1499457611.28,55351,17.06,74112.5,4.21,-15.21,-15.01,0,*7F
1499457612.53,55352,17.06,74120.0,4.21,-15.15,-15.01,0,*7B
1499457613.77,55353,17.13,74128.0,4.19,-15.21,-14.93,0,*7C
1499457615.03,55354,17.13,74120.8,4.21,-15.01,-14.75,0,*7A
1499457616.28,55355,17.13,74122.5,4.21,-15.07,-14.83,0,*74
1499457617.52,55356,17.13,74128.0,4.19,-15.21,-14.79,0,*7D
1499457618.77,55357,17.06,74122.3,4.17,-15.07,-14.75,0,*7A
1499457620.04,55358,17.06,74120.5,4.21,-15.01,-14.55,0,*74
1499457621.28,55359,17.06,74120.5,4.19,-14.97,-14.51,0,*74
1499457622.52,55360,17.06,74124.5,4.19,-14.97,-14.51,0,*7E
1499457623.71,55361,17.06,74126.5,4.19,-14.89,-14.23,0,*75
1499457624.96,55362,17.13,74126.5,4.19,-14.97,-14.47,0,*7B
1499457626.18,55363,17.06,74114.3,4.21,-14.89,-14.29,0,*76
1499457627.4,55364,17.06,74118.3,4.19,-14.97,-14.33,0,*7E
1499457628.64,55365,17.06,74118.5,4.21,-15.01,-14.33,0,*7A
1499457629.83,55366,17.06,74118.8,4.19,-15.07,-14.37,0,*70
1499457631.03,55367,17.06,74122.0,4.19,-15.07,-14.23,0,*74
1499457632.23,55368,17.06,74118.3,4.19,-14.97,-14.11,0,*72
1499457633.42,55369,17.06,74118.0,4.19,-14.89,-13.93,0,*71
1499457634.64,55370,17.06,74118.0,4.19,-14.79,-13.73,0,*78
1499457635.83,55371,17.06,74128.0,4.19,-14.61,-13.65,0,*77
1499457637.09,55372,17.06,74126.0,4.19,-14.47,-13.37,0,*77
1499457638.29,55373,17.06,74116.5,4.19,-14.33,-13.23,0,*70
1499457639.49,55374,17.06,74112.8,4.19,-14.19,-13.11,0,*7E
1499457640.74,55375,17.06,74108.0,4.23,-14.55,-13.29,0,*75
1499457641.92,55376,17.06,74108.8,4.23,-14.69,-13.43,0,*75
1499457643.14,55377,17.06,74114.3,4.23,-14.83,-13.47,0,*74
1499457644.36,55378,17.06,74114.3,4.21,-14.89,-13.47,0,*73
1499457645.57,55379,17.06,74120.3,4.21,-14.89,-13.43,0,*76
1499457646.8,55380,17.06,74118.5,4.21,-14.69,-13.19,0,*71
1499457648.06,55381,17.06,74114.5,4.21,-14.19,-12.75,0,*7C
1499457649.32,55382,17.06,74116.0,4.21,-13.97,-12.29,0,*77
1499457650.59,55383,17.06,74102.5,4.21,-13.87,-12.11,0,*7C
1499457651.84,55384,17.06,74100.5,4.21,-14.29,-12.61,0,*7F
1499457653.05,55385,17.06,74104.0,4.23,-14.15,-12.47,0,*77
1499457654.25,55386,17.06,74104.0,4.23,-14.19,-12.29,0,*70
1499457655.45,55387,17.06,74108.0,4.23,-14.33,-12.47,0,*71
1499457656.68,55388,17.06,74122.8,4.23,-14.43,-12.43,0,*7D
1499457657.93,55389,17.06,74112.3,4.23,-14.01,-11.97,0,*70
1499457659.19,55390,17.06,74104.5,4.23,-14.05,-11.89,0,*73
1499457660.47,55391,17.06,74106.0,4.25,-14.01,-11.93,0,*7B
1499457661.72,55392,17.13,74110.3,4.27,-14.01,-11.93,0,*7A
1499457662.92,55393,17.06,74108.0,4.27,-14.29,-12.25,0,*7F
1499457664.14,55394,17.06,74124.8,4.27,-14.51,-12.39,0,*7A
1499457665.37,55395,17.06,74126.8,4.27,-14.15,-11.85,0,*7F
1499457666.62,55396,17.06,74126.0,4.27,-13.97,-11.59,0,*70
1499457667.85,55397,17.06,74112.8,4.27,-13.83,-11.45,0,*79
1499457669.04,55398,17.06,74102.3,4.27,-13.93,-11.45,0,*77
1499457670.29,55399,17.06,74098.5,4.25,-14.15,-11.81,0,*75
1499457671.51,55400,17.06,74100.5,4.27,-14.29,-11.81,0,*7F
1499457672.73,55401,17.06,74104.0,4.27,-14.29,-11.85,0,*7A
1499457673.98,55402,17.06,74104.3,4.27,-14.51,-11.85,0,*76
1499457675.2,55403,17.06,74112.5,4.27,-14.37,-11.73,0,*7E
1499457676.44,55404,17.06,74116.8,4.25,-14.37,-11.81,0,*76
1499457677.69,55405,17.06,74112.3,4.25,-14.37,-11.73,0,*7A
1499457678.92,55406,17.06,74120.0,4.25,-14.11,-11.41,0,*7C
1499457680.15,55407,17.06,74112.0,4.25,-14.11,-11.41,0,*7D
1499457681.37,55408,17.06,74108.5,4.27,-14.29,-11.55,0,*7E
1499457682.59,55409,17.06,74118.3,4.27,-14.11,-11.29,0,*7F
1499457683.79,55410,17.06,74118.5,4.27,-14.11,-11.23,0,*7D
1499457685.02,55411,17.06,74106.8,4.27,-13.97,-11.11,0,*74
1499457686.25,55412,17.06,74104.0,4.27,-14.01,-11.01,0,*7E
1499457687.48,55413,17.13,74114.8,4.27,-13.97,-10.97,0,*79
1499457688.73,55414,17.06,74110.3,4.27,-13.83,-10.75,0,*77
1499457689.94,55415,17.06,74108.8,4.27,-13.79,-10.85,0,*7C
1499457691.17,55416,17.06,74114.5,4.27,-13.69,-10.63,0,*76
1499457692.41,55417,17.06,74108.5,4.27,-13.79,-10.75,0,*71
1499457693.67,55418,17.13,74112.5,4.29,-13.79,-10.67,0,*73
1499457694.9,55419,17.06,74086.5,4.27,-13.69,-10.63,0,*79
1499457696.1,55420,17.06,74102.8,4.29,-13.73,-10.57,0,*71
1499457697.31,55421,17.13,74100.3,4.29,-13.93,-10.57,0,*7E
1499457698.54,55422,17.06,74104.0,4.29,-13.97,-10.57,0,*79
1499457699.77,55423,17.06,74110.8,4.27,-14.01,-10.57,0,*7E
1499457701.01,55424,17.06,74110.8,4.29,-13.97,-10.45,0,*7C
1499457702.24,55425,17.06,74114.8,4.27,-14.01,-10.45,0,*7B
1499457703.46,55426,17.13,74116.5,4.27,-13.79,-10.19,0,*79
1499457704.69,55427,17.06,74124.8,4.29,-13.37,-9.75,0,*4E
1499457705.9,55428,17.06,74114.0,4.27,-13.43,-9.61,0,*49
1499457707.15,55429,17.06,74102.0,4.29,-13.61,-9.83,0,*4A
1499457708.39,55430,17.06,74096.3,4.29,-13.97,-10.09,0,*71
1499457709.59,55431,17.06,74098.3,4.29,-13.93,-10.01,0,*7C
1499457710.82,55432,17.06,74102.3,4.27,-14.01,-9.93,0,*4E
1499457712.04,55433,17.06,74104.5,4.31,-13.93,-9.79,0,*40
1499457713.26,55434,17.06,74114.3,4.27,-14.01,-9.67,0,*43
1499457714.48,55435,17.06,74116.5,4.29,-13.93,-9.41,0,*44
1499457715.66,55436,17.06,74122.5,4.27,-13.93,-9.31,0,*4E
1499457716.85,55437,17.06,74120.0,4.27,-13.93,-9.19,0,*45
1499457718.07,55438,17.06,74120.8,4.29,-13.87,-9.01,0,*48
1499457719.26,55439,17.06,74124.8,4.29,-13.73,-8.75,0,*40
1499457720.46,55440,17.06,74106.8,4.29,-13.65,-8.45,0,*4A
1499457721.66,55441,17.06,74106.8,4.29,-13.51,-8.33,0,*4D
1499457722.88,55442,17.06,74108.0,4.29,-13.61,-8.21,0,*4E
1499457724.08,55443,17.13,74114.3,4.29,-13.55,-8.17,0,*4D
1499457725.32,55444,17.13,74116.5,4.29,-13.61,-7.95,0,*48
1499457726.55,55445,17.06,74114.3,4.29,-13.61,-7.83,0,*4E
1499457727.75,55446,17.06,74112.5,4.29,-13.65,-7.83,0,*49
1499457729.0,55447,17.06,74102.0,4.29,-13.61,-7.69,0,*48
1499457730.23,55448,17.06,74108.3,4.29,-13.51,-7.57,0,*49
1499457731.48,55449,17.06,74108.3,4.29,-13.37,-7.31,0,*48
1499457732.7,55450,17.06,74098.3,4.29,-13.29,-7.23,0,*4C
1499457733.95,55451,17.06,74110.3,4.31,-13.15,-7.01,0,*4B
1499457735.17,55452,17.06,74112.0,4.31,-12.93,-6.89,0,*46
1499457736.42,55453,17.06,74110.3,4.31,-12.71,-6.59,0,*46
1499457737.67,55454,17.06,74114.0,4.31,-12.57,-6.55,0,*49
1499457738.9,55455,17.06,74118.0,4.31,-12.47,-6.59,0,*45
1499457740.09,55456,17.06,74122.8,4.33,-12.47,-6.73,0,*4C
1499457741.29,55457,17.06,74120.8,4.33,-12.47,-6.73,0,*4D
1499457742.51,55458,17.06,74112.8,4.31,-12.43,-6.73,0,*44
1499457743.73,55459,17.06,74106.8,4.31,-12.29,-6.69,0,*42
1499457744.96,55460,17.06,74100.5,4.31,-12.29,-6.69,0,*48
1499457746.17,55461,17.06,74102.8,4.33,-12.15,-6.69,0,*44
1499457747.42,55462,17.06,74102.3,4.31,-12.07,-6.73,0,*4D
1499457748.67,55463,17.06,74104.0,4.31,-11.89,-6.85,0,*40
1499457749.92,55464,17.06,74108.5,4.31,-11.89,-6.85,0,*47
1499457751.19,55465,17.06,74110.0,4.31,-11.77,-6.97,0,*44
1499457752.44,55466,17.06,74110.8,4.31,-11.77,-7.11,0,*48
1499457753.69,55467,17.13,74112.5,4.31,-11.77,-7.23,0,*48
1499457754.97,55468,17.06,74110.3,4.31,-11.77,-7.39,0,*4C
1499457756.21,55469,17.06,74108.5,4.31,-11.51,-7.49,0,*4E
1499457757.46,55470,17.06,74114.3,4.29,-11.55,-7.57,0,*44
1499457758.7,55471,17.13,74110.3,4.27,-11.55,-7.77,0,*49
1499457759.95,55472,17.06,74104.8,4.31,-11.45,-7.95,0,*40
1499457761.18,55473,17.06,74100.5,4.33,-11.59,-8.21,0,*4E
1499457762.4,55474,17.06,74110.5,4.29,-11.77,-8.37,0,*49
1499457763.62,55475,17.06,74132.0,4.29,-11.77,-8.63,0,*49
1499457764.85,55476,17.06,74126.3,4.29,-11.55,-8.45,0,*4E
1499457766.06,55477,17.13,74120.3,4.29,-11.55,-8.67,0,*4F
1499457767.28,55478,17.06,74122.5,4.29,-11.55,-8.93,0,*4B
1499457768.51,55479,17.06,74124.5,4.29,-11.63,-9.19,0,*4C
1499457769.75,55480,17.06,74116.5,4.31,-11.85,-9.27,0,*46
1499457771.03,55481,17.06,74110.8,4.31,-11.89,-9.53,0,*48
1499457772.28,55482,17.06,74098.0,4.31,-11.97,-9.71,0,*44
1499457773.53,55483,17.13,74106.8,4.31,-11.97,-9.71,0,*45
1499457774.78,55484,17.06,74104.8,4.31,-11.77,-9.71,0,*4C
1499457776.03,55485,17.13,74096.8,4.31,-11.89,-9.93,0,*40
1499457777.28,55486,17.06,74094.0,4.31,-11.89,-9.93,0,*43
1499457778.54,55487,17.06,74106.0,4.31,-11.97,-10.05,0,*7A
1499457779.77,55488,17.06,74104.3,4.33,-12.07,-10.27,0,*7D
1499457781.01,55489,17.06,74100.5,4.33,-12.21,-10.41,0,*78
1499457782.27,55490,17.13,74114.3,4.31,-12.35,-10.53,0,*74
1499457783.5,55491,17.06,74114.8,4.33,-12.43,-10.67,0,*71
1499457784.73,55492,17.06,74110.5,4.33,-12.47,-10.79,0,*79
1499457785.93,55493,17.06,74110.3,4.33,-12.47,-10.93,0,*7C
1499457787.18,55494,17.06,74116.5,4.31,-12.61,-11.01,0,*77
1499457788.44,55495,17.06,74112.3,4.31,-12.71,-11.19,0,*7E
1499457789.71,55496,17.06,74110.8,4.31,-12.75,-11.33,0,*71
1499457790.96,55497,17.13,74106.5,4.33,-12.83,-11.37,0,*7F
1499457792.21,55498,17.06,74108.5,4.33,-12.83,-11.37,0,*70
1499457793.43,55499,17.13,74114.8,4.33,-12.89,-11.59,0,*73
1499457794.66,55500,17.06,74112.0,4.33,-12.93,-11.59,0,*79
1499457795.92,55501,17.06,74108.8,4.31,-12.93,-11.59,0,*7A
1499457797.17,55502,17.06,74114.5,4.31,-12.93,-11.59,0,*79
1499457798.42,55503,17.13,74116.5,4.33,-12.83,-11.37,0,*73
1499457799.65,55504,17.06,74106.3,4.31,-12.89,-11.45,0,*79
1499457800.92,55505,17.06,74102.0,4.31,-13.01,-11.59,0,*74
1499457802.18,55506,17.06,74100.8,4.33,-13.01,-11.73,0,*7D
1499457803.43,55507,17.13,74114.0,4.31,-13.15,-11.73,0,*7B
1499457804.68,55508,17.13,74102.0,4.31,-13.15,-11.73,0,*74
1499457805.93,55509,17.06,74116.8,4.31,-13.19,-11.73,0,*79
1499457807.19,55510,17.06,74112.0,4.31,-13.15,-11.63,0,*7C
1499457808.41,55511,17.06,74122.0,4.33,-13.07,-11.59,0,*75
1499457809.63,55512,17.13,74112.3,4.33,-13.07,-11.33,0,*7A
1499457810.88,55513,17.06,74118.3,4.31,-13.07,-11.37,0,*7D
1499457812.14,55514,17.06,74122.3,4.31,-13.01,-11.23,0,*79
1499457813.36,55515,17.06,74124.5,4.31,-13.15,-11.23,0,*7D
1499457814.58,55516,17.13,74118.3,4.33,-13.07,-11.33,0,*7E
1499457815.83,55517,17.06,74108.8,4.31,-13.15,-11.33,0,*7E
1499457817.02,55518,17.06,74114.0,4.33,-13.15,-11.19,0,*7B
1499457818.28,55519,17.06,74114.0,4.31,-13.29,-11.19,0,*77
1499457819.5,55520,17.06,74120.8,4.33,-13.33,-11.23,0,*7D
1499457820.73,55521,17.06,74124.3,4.31,-13.43,-11.23,0,*79
1499457821.96,55522,17.06,74128.0,4.31,-13.47,-11.15,0,*7B
1499457823.21,55523,17.13,74130.3,4.31,-13.43,-11.07,0,*7D
1499457824.47,55524,17.06,74108.0,4.31,-13.29,-10.93,0,*7A
1499457825.7,55525,17.13,74108.8,4.31,-13.15,-10.89,0,*7F
1499457826.95,55526,17.06,74102.8,4.31,-13.07,-10.75,0,*7C
1499457828.21,55527,17.06,74094.5,4.31,-13.07,-10.63,0,*7A
1499457829.47,55528,17.06,74104.5,4.31,-13.19,-10.79,0,*71
1499457830.72,55529,17.06,74098.5,4.31,-13.29,-10.89,0,*7C
1499457831.98,55530,17.06,74100.8,4.31,-13.33,-10.89,0,*7F
1499457833.21,55531,17.13,74112.0,4.33,-13.29,-10.89,0,*77
1499457834.44,55532,17.06,74110.8,4.31,-13.19,-10.89,0,*75
1499457835.7,55533,17.06,74102.0,4.31,-13.07,-10.79,0,*74
1499457836.95,55534,17.06,74096.8,4.31,-13.07,-10.75,0,*7F
1499457838.18,55535,17.13,74104.0,4.33,-13.07,-10.79,0,*70
1499457839.46,55536,17.13,74116.0,4.31,-13.01,-10.79,0,*77
1499457840.75,55537,17.13,74114.0,4.31,-12.75,-10.67,0,*7B
1499457842.03,55538,17.13,74108.5,4.31,-12.83,-10.75,0,*7E
1499457843.29,55539,17.13,74114.5,4.31,-12.89,-10.79,0,*79
1499457844.52,55540,17.13,74110.3,4.31,-12.89,-10.93,0,*73
1499457845.75,55541,17.06,74104.3,4.31,-12.93,-10.93,0,*79
1499457846.98,55542,17.13,74100.8,4.31,-12.93,-11.15,0,*75
1499457848.21,55543,17.13,74098.3,4.31,-12.89,-11.15,0,*7F
1499457849.45,55544,17.06,74106.0,4.31,-12.83,-11.19,0,*7E
1499457850.68,55545,17.13,74114.3,4.31,-12.93,-11.19,0,*7E
1499457851.93,55546,17.06,74112.5,4.31,-12.83,-11.19,0,*7C
1499457853.18,55547,17.06,74112.8,4.31,-12.83,-11.19,0,*7D
1499457854.4,55548,17.06,74114.8,4.27,-12.97,-11.29,0,*73
1499457855.65,55549,17.13,74130.5,4.31,-12.83,-11.15,0,*7F
1499457856.93,55550,17.13,74128.8,4.31,-12.83,-11.07,0,*74
1499457858.14,55551,17.06,74122.8,4.29,-12.93,-11.11,0,*7A
1499457859.35,55552,17.06,74122.3,4.29,-12.93,-10.97,0,*76
1499457860.55,55553,17.13,74124.3,4.29,-12.97,-10.97,0,*73
1499457861.76,55554,17.06,74128.0,4.29,-13.07,-10.97,0,*7C
1499457863.02,55555,17.13,74132.8,4.31,-13.01,-10.89,0,*7D
1499457864.22,55556,17.06,74130.3,4.29,-13.07,-10.93,0,*7A
1499457865.45,55557,17.06,74128.8,4.29,-13.11,-10.79,0,*78
1499457866.68,55558,17.13,74130.3,4.29,-13.11,-10.71,0,*7F
1499457867.88,55559,17.06,74126.3,4.29,-12.97,-10.53,0,*71
1499457869.08,55560,17.13,74128.8,4.27,-13.07,-10.31,0,*79
1499457870.28,55561,17.13,74126.0,4.29,-12.89,-10.23,0,*72
1499457871.51,55562,17.06,74126.8,4.29,-12.79,-9.97,0,*49
1499457872.7,55563,17.13,74124.3,4.29,-12.89,-9.97,0,*47
1499457873.9,55564,17.06,74124.0,4.29,-12.89,-9.75,0,*4C
1499457875.1,55565,17.06,74126.8,4.29,-12.89,-9.71,0,*49
1499457876.33,55566,17.13,74124.8,4.31,-12.89,-9.67,0,*44
1499457877.6,55567,17.13,74126.0,4.31,-12.71,-9.45,0,*42
1499457878.87,55568,17.13,74130.3,4.31,-12.83,-9.41,0,*44
1499457880.15,55569,17.06,74124.0,4.31,-12.75,-9.37,0,*4D
1499457881.4,55570,17.13,74126.3,4.31,-12.75,-9.23,0,*40
1499457882.67,55571,17.06,74126.0,4.31,-12.71,-9.11,0,*44
1499457883.92,55572,17.13,74128.0,4.31,-12.57,-8.89,0,*43
1499457885.11,55573,17.06,74128.3,4.33,-12.43,-8.71,0,*42
1499457886.34,55574,17.13,74124.8,4.31,-12.29,-8.45,0,*4C
1499457887.59,55575,17.06,74120.3,4.31,-12.35,-8.41,0,*44
1499457888.83,55576,17.06,74120.3,4.31,-12.35,-8.41,0,*47
1499457890.06,55577,17.13,74122.3,4.31,-12.29,-8.29,0,*45
1499457891.31,55578,17.13,74120.0,4.31,-12.21,-8.03,0,*4A
1499457892.53,55579,17.06,74120.0,4.29,-12.07,-7.83,0,*41
1499457893.75,55580,17.06,74112.5,4.29,-12.03,-7.69,0,*47
1499457895.03,55581,17.06,74122.3,4.31,-12.07,-7.65,0,*47
1499457896.25,55582,17.06,74118.3,4.31,-12.03,-7.53,0,*45
1499457897.47,55583,17.13,74124.3,4.29,-12.03,-7.43,0,*4C
1499457898.73,55584,17.13,74118.3,4.29,-11.93,-7.27,0,*43
1499457899.96,55585,17.06,74114.8,4.29,-11.93,-7.19,0,*4F
1499457901.23,55586,17.06,74114.8,4.31,-11.89,-6.97,0,*49
1499457902.48,55587,17.13,74120.3,4.29,-11.93,-6.93,0,*4E
1499457903.73,55588,17.13,74128.3,4.31,-11.97,-6.85,0,*4B
1499457904.95,55589,17.13,74128.0,4.29,-11.97,-6.85,0,*43
1499457906.18,55590,17.06,74124.8,4.29,-11.93,-6.73,0,*46
1499457907.4,55591,17.06,74122.0,4.29,-11.89,-6.59,0,*44
1499457908.62,55592,17.06,74120.3,4.29,-11.81,-6.47,0,*40
1499457909.85,55593,17.06,74128.3,4.29,-11.77,-6.35,0,*4D
1499457911.07,55594,17.06,74128.8,4.29,-11.67,-6.13,0,*4F
1499457912.28,55595,17.06,74132.3,4.27,-11.59,-6.13,0,*4D
1499457913.53,55596,17.13,74134.3,4.29,-11.51,-5.81,0,*40
1499457914.78,55597,17.06,74130.0,4.29,-11.29,-5.73,0,*43
1499457915.98,55598,17.13,74128.8,4.29,-11.19,-5.55,0,*4B
1499457917.2,55599,17.06,74126.3,4.31,-11.01,-5.39,0,*40
1499457918.46,55600,17.06,74116.3,4.31,-11.01,-5.31,0,*4B
1499457919.71,55601,17.13,74118.3,4.31,-10.93,-5.31,0,*40
1499457920.99,55602,17.13,74126.5,4.31,-10.75,-5.19,0,*41
1499457922.25,55603,17.13,74126.0,4.33,-10.75,-5.03,0,*49
1499457923.5,55604,17.13,74122.8,4.29,-10.71,-5.07,0,*45
1499457924.76,55605,17.13,74118.0,4.29,-10.67,-4.89,0,*44
1499457926.01,55606,17.13,74114.3,4.29,-10.67,-4.93,0,*4C
1499457927.29,55607,17.13,74126.0,4.31,-10.41,-4.73,0,*4E
1499457928.51,55608,17.06,74122.8,4.31,-10.27,-4.65,0,*46
1499457929.73,55609,17.06,74124.0,4.31,-10.09,-4.53,0,*4E
1499457930.95,55610,17.13,74128.5,4.31,-9.97,-4.49,0,*72
1499457932.18,55611,17.13,74134.5,4.31,-9.83,-4.41,0,*7E
1499457933.42,55612,17.06,74120.8,4.31,-9.83,-4.41,0,*7D
1499457934.64,55613,17.13,74130.5,4.31,-9.79,-4.41,0,*79
1499457935.83,55614,17.13,74130.5,4.33,-9.79,-4.41,0,*7C
1499457937.05,55615,17.06,74124.0,4.31,-9.71,-4.29,0,*79
1499457938.28,55616,17.13,74126.0,4.31,-9.71,-4.29,0,*7A
1499457939.48,55617,17.13,74118.3,4.33,-9.79,-4.21,0,*79
1499457940.67,55618,17.06,74114.5,4.33,-9.79,-4.09,0,*7C
1499457941.88,55619,17.06,74110.8,4.33,-9.79,-4.01,0,*75
1499457943.1,55620,17.13,74108.8,4.31,-9.79,-3.95,0,*77
1499457944.29,55621,17.13,74110.3,4.33,-9.79,-3.83,0,*73
1499457945.52,55622,17.13,74108.0,4.31,-9.79,-3.71,0,*7F
1499457946.71,55623,17.13,74116.3,4.33,-9.67,-3.35,0,*73
1499457947.95,55624,17.13,74114.5,4.31,-9.45,-3.11,0,*70
1499457949.16,55625,17.13,74114.5,4.33,-9.57,-3.11,0,*70
1499457950.38,55626,17.13,74114.3,4.33,-9.53,-2.99,0,*76
1499457951.59,55627,17.13,74108.0,4.31,-9.67,-2.87,0,*7D
1499457952.83,55628,17.06,74096.8,4.33,-9.45,-2.71,0,*79
1499457954.03,55629,17.13,74096.0,4.33,-9.27,-2.43,0,*7D
1499457955.25,55630,17.13,74092.5,4.31,-9.23,-2.31,0,*76
1499457956.5,55631,17.13,74094.8,4.33,-9.11,-2.11,0,*76
1499457957.75,55632,17.13,74092.3,4.33,-9.15,-2.07,0,*76
1499457958.99,55633,17.06,74084.5,4.33,-9.11,-1.95,0,*7B
1499457960.22,55634,17.06,74088.5,4.33,-9.01,-1.87,0,*7E
1499457961.41,55635,17.06,74098.8,4.33,-8.97,-1.79,0,*70
1499457962.61,55636,17.06,74094.5,4.33,-8.85,-1.79,0,*70
1499457963.81,55637,17.06,74096.3,4.33,-8.63,-1.79,0,*79
1499457965.0,55638,17.13,74102.5,4.33,-8.59,-1.79,0,*7F
1499457966.19,55639,17.13,74096.0,4.33,-8.59,-1.79,0,*7E
1499457967.39,55640,17.13,74098.0,4.33,-8.41,-1.79,0,*79
1499457968.6,55641,17.06,74094.5,4.33,-8.33,-1.87,0,*7C
1499457969.81,55642,17.06,74104.0,4.33,-8.29,-1.87,0,*74
1499457971.03,55643,17.06,74104.3,4.33,-8.21,-1.99,0,*72
1499457972.28,55644,17.06,74116.5,4.33,-8.07,-2.11,0,*72
1499457973.52,55645,17.06,74116.0,4.33,-7.91,-2.11,0,*73
1499457974.71,55646,17.06,74108.0,4.33,-7.83,-2.23,0,*72
1499457975.91,55647,17.13,74108.3,4.33,-7.83,-2.31,0,*70
1499457977.18,55648,17.13,74108.0,4.31,-7.77,-2.47,0,*77
1499457978.42,55649,17.13,74106.8,4.33,-7.69,-2.55,0,*78
1499457979.66,55650,17.13,74100.5,4.33,-7.69,-2.67,0,*71
1499457980.88,55651,17.13,74106.8,4.33,-7.77,-2.83,0,*75
1499457982.12,55652,17.13,74102.5,4.35,-7.65,-2.83,0,*73
1499457983.35,55653,17.13,74108.5,4.39,-7.65,-2.91,0,*7D
1499457984.6,55654,17.13,74104.5,4.35,-7.57,-2.95,0,*73
1499457985.83,55655,17.13,74108.0,4.35,-7.57,-3.15,0,*7B
1499457987.07,55656,17.13,74108.3,4.35,-7.61,-3.27,0,*7C
1499457988.28,55657,17.13,74110.3,4.35,-7.49,-3.39,0,*78
1499457989.54,55658,17.13,74114.3,4.39,-7.57,-3.43,0,*79
1499457990.8,55659,17.06,74112.3,4.35,-7.61,-3.59,0,*7A
1499457992.04,55660,17.13,74110.8,4.39,-7.73,-3.83,0,*78
1499457993.25,55661,17.06,74102.0,4.35,-7.87,-3.95,0,*79
1499457994.49,55662,17.06,74106.8,4.39,-7.99,-4.21,0,*71
1499457995.73,55663,17.06,74108.5,4.35,-7.99,-4.21,0,*7C
1499457996.96,55664,17.13,74104.3,4.35,-7.77,-4.17,0,*7E
1499457998.17,55665,17.06,74112.5,4.39,-7.87,-4.17,0,*7C
1499457999.4,55666,17.06,74112.5,4.35,-8.03,-4.33,0,*76
1499458000.64,55667,17.13,74112.0,4.35,-8.11,-4.33,0,*74
1499458001.86,55668,17.06,74114.8,4.41,-8.07,-4.41,0,*7A
1499458003.07,55669,17.13,74116.5,4.35,-8.17,-4.45,0,*7D
1499458004.28,55670,17.06,74110.3,4.41,-8.07,-4.33,0,*76
1499458005.52,55671,17.06,74110.5,4.39,-8.11,-4.33,0,*7F
1499458006.74,55672,17.13,74112.5,4.41,-8.07,-4.41,0,*71
1499458007.96,55673,17.13,74112.8,4.41,-8.11,-4.41,0,*77
1499458009.17,55674,17.13,74116.0,4.41,-8.07,-4.41,0,*77
1499458010.38,55675,17.13,74122.5,4.43,-8.21,-4.49,0,*78
1499458011.6,55676,17.13,74116.8,4.43,-8.37,-4.65,0,*72
1499458012.81,55677,17.13,74114.8,4.41,-8.41,-4.77,0,*73
1499458014.05,55678,17.13,74116.3,4.43,-8.63,-4.89,0,*7F
1499458015.3,55679,17.06,74114.5,4.43,-8.85,-5.15,0,*72
1499458016.55,55680,17.06,74118.8,4.43,-8.89,-5.19,0,*74
1499458017.79,55681,17.13,74116.3,4.43,-9.11,-5.39,0,*77
1499458019.07,55682,17.13,74118.3,4.47,-9.11,-5.61,0,*7D
1499458020.31,55683,17.06,74116.3,4.45,-9.41,-5.77,0,*7C
1499458021.57,55684,17.13,74118.0,4.43,-9.45,-5.81,0,*70
1499458022.83,55685,17.13,74116.0,4.43,-9.53,-5.93,0,*75
1499458024.03,55686,17.06,74118.0,4.43,-9.67,-6.09,0,*71
1499458025.26,55687,17.13,74120.0,4.43,-9.57,-6.05,0,*7F
1499458026.49,55688,17.13,74118.0,4.43,-9.57,-6.09,0,*7C
1499458027.72,55689,17.06,74118.3,4.43,-9.67,-6.23,0,*76
1499458028.93,55690,17.06,74122.3,4.43,-9.67,-6.31,0,*7D
1499458030.14,55691,17.13,74120.8,4.43,-9.67,-6.35,0,*78
1499458031.35,55692,17.13,74126.3,4.43,-9.67,-6.31,0,*7F
1499458032.57,55693,17.13,74126.8,4.43,-9.71,-6.35,0,*7D
1499458033.75,55694,17.13,74126.8,4.41,-9.89,-6.47,0,*7A
1499458034.98,55695,17.06,74120.3,4.43,-9.83,-6.47,0,*73
1499458036.17,55696,17.13,74122.8,4.41,-9.97,-6.47,0,*77
1499458037.36,55697,17.06,74122.5,4.41,-10.01,-6.47,0,*41
1499458038.54,55698,17.13,74130.5,4.41,-10.09,-6.39,0,*4F
1499458039.73,55699,17.06,74126.0,4.41,-10.09,-6.35,0,*42
1499458040.97,55700,17.06,74124.3,4.43,-10.09,-6.19,0,*4F
1499458042.18,55701,17.06,74124.3,4.41,-10.27,-6.23,0,*49
1499458043.39,55702,17.06,74124.8,4.43,-10.27,-6.09,0,*40
1499458044.63,55703,17.06,74126.3,4.43,-10.41,-6.05,0,*4D
1499458045.87,55704,17.06,74122.5,4.43,-10.41,-5.97,0,*42
1499458047.06,55705,17.06,74118.0,4.41,-10.45,-5.97,0,*45
1499458048.31,55706,17.06,74120.0,4.41,-10.41,-5.89,0,*4D
1499458049.58,55707,17.13,74116.5,4.43,-10.41,-5.81,0,*46
1499458050.82,55708,17.13,74116.0,4.43,-10.49,-5.77,0,*48
1499458052.03,55709,17.06,74116.3,4.41,-10.53,-5.69,0,*4F
1499458053.27,55710,17.06,74118.0,4.43,-10.49,-5.65,0,*42
1499458054.48,55711,17.06,74112.5,4.43,-10.53,-5.51,0,*4F
1499458055.67,55712,17.06,74114.5,4.41,-10.53,-5.43,0,*4D
1499458056.86,55713,17.13,74116.3,4.41,-10.53,-5.35,0,*4D
1499458058.08,55714,17.13,74116.0,4.41,-10.45,-5.23,0,*4A
1499458059.33,55715,17.13,74118.3,4.41,-10.41,-5.19,0,*46
1499458060.58,55716,17.06,74118.8,4.41,-10.41,-5.11,0,*4D
1499458061.8,55717,17.13,74122.5,4.41,-10.31,-4.93,0,*40
1499458063.01,55718,17.06,74122.0,4.41,-10.27,-4.77,0,*42
1499458064.21,55719,17.13,74124.3,4.41,-10.15,-4.57,0,*40
1499458065.41,55720,17.06,74116.8,4.41,-10.01,-4.53,0,*4B
1499458066.59,55721,17.13,74120.5,4.41,-10.09,-4.45,0,*45
1499458067.8,55722,17.06,74116.0,4.43,-9.97,-4.29,0,*71
1499458068.98,55723,17.13,74122.8,4.41,-9.89,-4.21,0,*75
1499458070.19,55724,17.13,74118.0,4.39,-9.79,-4.09,0,*78
1499458071.41,55725,17.13,74120.3,4.39,-9.79,-3.91,0,*7F
1499458072.6,55726,17.13,74122.8,4.41,-9.71,-3.75,0,*71
1499458073.85,55727,17.06,74118.0,4.39,-9.53,-3.67,0,*7C
1499458075.1,55728,17.13,74122.8,4.39,-9.41,-3.55,0,*71
1499458076.31,55729,17.13,74126.5,4.39,-9.23,-3.31,0,*76
1499458077.51,55730,17.13,74124.3,4.41,-9.01,-3.11,0,*73
1499458078.7,55731,17.06,74114.8,4.41,-9.01,-2.91,0,*7B
1499458079.88,55732,17.06,74112.8,4.41,-8.75,-2.79,0,*7C
1499458081.1,55733,17.13,74118.0,4.41,-8.67,-2.67,0,*71
1499458082.31,55734,17.13,74118.5,4.41,-8.55,-2.59,0,*7A
1499458083.53,55735,17.13,74118.3,4.39,-8.45,-2.39,0,*73
1499458084.74,55736,17.13,74114.8,4.35,-8.29,-2.15,0,*78
1499458086.0,55737,17.13,74112.5,4.39,-8.11,-1.91,0,*71
1499458087.24,55738,17.13,74116.5,4.39,-7.91,-1.55,0,*71
1499458088.5,55739,17.13,74108.5,4.39,-7.65,-1.39,0,*71
1499458089.71,55740,17.13,74108.8,4.41,-7.53,-1.13,0,*7D
1499458090.94,55741,17.13,74108.3,4.41,-7.39,-1.05,0,*77
1499458092.19,55742,17.13,74110.5,4.39,-7.31,-0.93,0,*4D
1499458093.4,55743,17.13,74108.3,4.39,-7.11,-0.69,0,*4B
1499458094.63,55744,17.06,74102.5,4.39,-6.97,-0.65,0,*4F
1499458095.84,55745,17.13,74102.8,4.41,-6.63,-0.37,0,*4D
1499458097.04,55746,17.13,74114.0,4.41,-6.63,-0.29,0,*41
1499458098.23,55747,17.13,74116.5,4.41,-6.39,-0.19,0,*4C
1499458099.44,55748,17.13,74116.0,4.41,-6.23,-0.11,0,*40
1499458100.61,55749,17.06,74112.0,4.41,-6.01,0.01,0,*5D
1499458101.84,55750,17.06,74118.3,4.43,-5.77,0.05,0,*51
1499458103.04,55751,17.13,74120.3,4.41,-5.81,0.01,0,*5F
1499458104.22,55752,17.13,74120.5,4.41,-5.55,0.01,0,*55
1499458105.39,55753,17.13,74122.8,4.41,-5.43,0.01,0,*53
1499458106.62,55754,17.13,74122.5,4.43,-5.27,0.05,0,*50